Find Starlink 2082

NORAD ID: 47367 Int'l Des: 2021-005 Owner: SPXS Country: US Constellation: starlink operational
LEOCIRCULARSTARLINK_TYPE

現在のビュー

3D地球を読み込み中...

About Starlink 2082

Starlink 2082 (NORAD 47367) is a starlink constellation satellite (v1.0) launched Jan 20, 2021 by SPXS of US. It operates in LEO, CIRCULAR, STARLINK_TYPE orbit with a mass of 260.00 kg.

Starlink 2082について

説明を読み込み中...

次回通過

Passes for default location (London). Set your location on the main map for personalized predictions.

高度履歴

Loading altitude history...

軌道要素

1 47367U 21005U 26170.09394169 .00000309 00000-0 21715-4 0 9994
2 47367 53.1619 310.9223 0001037 97.7373 262.3747 15.31704500298568
Epoch: Jun 19, 2026 • Age: 6 hours

現在のステータス

高度 472.1 km
速度 7.63 km/s
衛星直下点 -2.08°S, 87.04°W
打ち上げ日 Jan 20, 2021
運用期間 5.4 years
タイプ internet

技術仕様

分類 Payload
質量 260.00 kg
乾燥質量 248.00 kg
総質量 260.00 kg
長さ 0.20 m
直径 2.80 m
スパン 9.00 m
形状 Box + pan
製造者 SPXS
バスタイプ Starlink
フェーズステータス In Orbit
所有者/国 SPXS/US

Most Searched